sat.trackr.live / text

‹ back to catalog

STARLINK-33531

NORAD 63399 · 2025-065A

PAYLOAD ACTIVE UNKNOWN

§ Identity

Operator
Country
US
Launch date
2025-03-31
Launch site
AFETR
Launch vehicle
Mass (kg)
RCS (m²)

Purposes: comms

External: N2YO · Heavens-Above · Gunter

§ Orbital elements

Epoch: 2026-05-24T22:45:38.329056Z

Period
94.27 min
Inclination
43.0042°
Eccentricity
0.0001490
Mean motion
15.27599918 rev/d
Perigee alt
482.0 km
Apogee alt
484.0 km
Semi-major
6,861.1 km
B*
6.2966e-4
RAAN
36.3317°
Arg perigee
247.0897°
Mean anomaly
112.9798°
Rev number
6,450

§ Raw data

STARLINK-335311 63399U 25065A   26144.94836029  .00017115  00000+0  62966-3 0  99922 63399  43.0042  36.3317 0001490 247.0897 112.9798 15.27599918 64507

JSON: /api/v1/satellites/63399 · /tle

For live sub-satellite position, see the globe view (requires WebGL).

§ Visibility from observer

Set your observer location to see the next 7 days of passes ≥ 10°. The values pass through the URL so the page stays shareable.

No JS? Fill the form by hand. The geolocation button needs JavaScript.